Precipitable_Water
0.67 0.68 0.64 0.64 0.63 0.63 0.62 0.64 0.68 0.69 0.74 0.81 0.87 0.91 0.89 0.84 0.83 0.88 0.94 1.05 1.09 1.04 1.05 0.95 1.07 1.07 1.00 0.76 0.77 1.06 1.00 0.77 0.58 0.51 0.43 0.39 0.35 0.31 0.26 0.27 0.27 0.24 0.26 0.29 0.31 0.29 0.28
0.63 0.63 0.68 0.65 0.64 0.64 0.61 0.60 0.66 0.68 0.72 0.76 0.83 0.89 0.92 0.92 0.94 0.93 0.94 1.03 1.07 1.07 1.03 1.03 1.03 1.04 0.86 0.63 1.00 0.99 0.86 0.69 0.55 0.48 0.43 0.40 0.34 0.33 0.29 0.27 0.24 0.29 0.28 0.29 0.29 0.28 0.28
0.62 0.62 0.62 0.66 0.63 0.64 0.61 0.56 0.63 0.68 0.69 0.73 0.76 0.86 0.90 0.92 0.92 0.92 0.95 1.03 1.04 1.04 1.05 1.04 0.99 0.89 0.74 0.72 0.99 0.93 0.79 0.67 0.57 0.49 0.41 0.43 0.40 0.33 0.31 0.27 0.32 0.29 0.24 0.27 0.27 0.27 0.25
0.65 0.60 0.61 0.63 0.64 0.62 0.61 0.57 0.60 0.66 0.69 0.70 0.71 0.81 0.87 0.90 0.91 0.87 0.93 0.95 0.97 1.01 1.04 1.06 1.03 0.90 0.68 0.98 0.98 0.81 0.76 0.65 0.61 0.53 0.48 0.47 0.44 0.36 0.32 0.33 0.28 0.23 0.23 0.17 0.25 0.27 0.27
0.77 0.65 0.58 0.61 0.64 0.66 0.61 0.57 0.57 0.64 0.67 0.69 0.72 0.75 0.83 0.86 0.85 0.85 0.85 0.85 0.89 0.93 0.95 1.01 0.90 0.82 0.67 0.95 0.77 0.81 0.76 0.61 0.60 0.55 0.51 0.49 0.44 0.35 0.33 0.26 0.22 0.23 0.15 0.17 0.19 0.26 0.24
0.81 0.69 0.63 0.58 0.62 0.66 0.66 0.58 0.54 0.60 0.63 0.65 0.69 0.71 0.77 0.79 0.81 0.83 0.84 0.83 0.85 0.85 0.84 0.87 0.87 0.68 0.76 0.66 0.75 0.73 0.71 0.64 0.54 0.48 0.42 0.40 0.36 0.29 0.27 0.23 0.16 0.17 0.17 0.17 0.15 0.21 0.22
0.82 0.78 0.66 0.60 0.59 0.62 0.67 0.66 0.56 0.56 0.61 0.61 0.62 0.65 0.68 0.75 0.75 0.80 0.77 0.71 0.61 0.60 0.68 0.60 0.66 0.63 0.68 0.74 0.82 0.70 0.66 0.54 0.49 0.43 0.32 0.34 0.24 0.20 0.22 0.23 0.23 0.21 0.19 0.17 0.21 0.26 0.22
0.87 0.79 0.69 0.62 0.61 0.60 0.64 0.67 0.65 0.57 0.57 0.58 0.58 0.61 0.64 0.70 0.71 0.74 0.72 0.57 0.63 0.66 0.48 0.63 0.64 0.64 0.69 0.71 0.55 0.61 0.70 0.51 0.45 0.35 0.36 0.29 0.24 0.29 0.30 0.27 0.25 0.23 0.20 0.20 0.25 0.29 0.27
0.89 0.81 0.77 0.63 0.62 0.58 0.62 0.65 0.65 0.63 0.56 0.52 0.55 0.56 0.59 0.62 0.68 0.63 0.59 0.61 0.76 0.72 0.43 0.48 0.58 0.57 0.59 0.60 0.50 0.50 0.57 0.51 0.45 0.39 0.37 0.29 0.31 0.34 0.29 0.27 0.24 0.26 0.24 0.25 0.25 0.30 0.31
0.83 0.85 0.77 0.75 0.63 0.58 0.58 0.63 0.63 0.64 0.61 0.54 0.50 0.52 0.55 0.58 0.51 0.56 0.51 0.65 0.70 0.67 0.31 0.36 0.42 0.50 0.56 0.56 0.45 0.59 0.60 0.52 0.43 0.36 0.38 0.36 0.38 0.34 0.30 0.28 0.31 0.25 0.37 0.35 0.33 0.29 0.21
0.74 0.81 0.80 0.74 0.74 0.62 0.57 0.60 0.63 0.64 0.62 0.59 0.54 0.50 0.51 0.53 0.50 0.47 0.56 0.67 0.68 0.52 0.16 0.38 0.43 0.60 0.54 0.45 0.46 0.48 0.60 0.50 0.41 0.40 0.38 0.34 0.37 0.35 0.31 0.33 0.37 0.32 0.39 0.35 0.33 0.29 0.26
0.70 0.76 0.78 0.77 0.73 0.71 0.60 0.56 0.60 0.63 0.62 0.62 0.60 0.57 0.53 0.47 0.53 0.58 0.67 0.68 0.55 0.23 0.17 0.32 0.44 0.42 0.42 0.45 0.45 0.50 0.50 0.54 0.50 0.40 0.38 0.37 0.45 0.41 0.38 0.38 0.36 0.37 0.32 0.31 0.30 0.24 0.13
0.67 0.69 0.75 0.75 0.76 0.72 0.68 0.57 0.53 0.56 0.60 0.61 0.63 0.65 0.61 0.57 0.42 0.61 0.65 0.49 0.20 0.16 0.33 0.29 0.34 0.42 0.40 0.36 0.37 0.39 0.36 0.35 0.31 0.26 0.28 0.33 0.34 0.39 0.40 0.31 0.35 0.31 0.23 0.12 0.10 0.11 0.09
0.67 0.67 0.69 0.72 0.74 0.75 0.69 0.66 0.54 0.51 0.52 0.55 0.57 0.62 0.63 0.60 0.61 0.62 0.44 0.25 0.14 0.26 0.29 0.37 0.36 0.36 0.30 0.36 0.37 0.36 0.31 0.26 0.35 0.31 0.25 0.20 0.18 0.31 0.37 0.31 0.25 0.26 0.23 0.14 0.08 0.10 0.13
0.66 0.67 0.68 0.70 0.69 0.73 0.73 0.67 0.65 0.51 0.48 0.48 0.49 0.54 0.55 0.61 0.65 0.57 0.30 0.14 0.18 0.24 0.31 0.31 0.33 0.25 0.25 0.31 0.33 0.34 0.31 0.29 0.32 0.33 0.20 0.18 0.18 0.35 0.35 0.39 0.36 0.30 0.23 0.34 0.23 0.25 0.19
0.65 0.66 0.68 0.68 0.67 0.69 0.72 0.70 0.64 0.63 0.51 0.46 0.38 0.42 0.45 0.63 0.65 0.47 0.28 0.23 0.28 0.36 0.35 0.33 0.21 0.27 0.22 0.25 0.26 0.28 0.27 0.33 0.30 0.36 0.37 0.27 0.18 0.33 0.36 0.42 0.43 0.37 0.43 0.28 0.31 0.18 0.16
0.64 0.65 0.67 0.69 0.66 0.65 0.68 0.70 0.69 0.63 0.64 0.54 0.39 0.25 0.45 0.60 0.52 0.34 0.23 0.29 0.35 0.44 0.46 0.38 0.33 0.31 0.31 0.31 0.34 0.33 0.33 0.38 0.42 0.41 0.43 0.39 0.33 0.32 0.42 0.36 0.34 0.38 0.35 0.37 0.36 0.32 0.22
0.62 0.65 0.65 0.68 0.67 0.65 0.65 0.69 0.70 0.68 0.63 0.61 0.40 0.19 0.44 0.52 0.25 0.29 0.25 0.31 0.37 0.36 0.43 0.40 0.40 0.36 0.33 0.33 0.30 0.29 0.28 0.33 0.42 0.40 0.32 0.36 0.29 0.25 0.30 0.42 0.46 0.43 0.36 0.35 0.24 0.23 0.28
0.61 0.63 0.65 0.65 0.67 0.67 0.65 0.67 0.69 0.69 0.68 0.53 0.43 0.38 0.45 0.38 0.15 0.21 0.29 0.29 0.33 0.31 0.32 0.31 0.29 0.32 0.33 0.27 0.21 0.24 0.24 0.34 0.37 0.33 0.28 0.32 0.24 0.16 0.21 0.29 0.37 0.31 0.31 0.31 0.30 0.27 0.18
0.60 0.61 0.63 0.64 0.65 0.68 0.66 0.63 0.66 0.67 0.69 0.59 0.43 0.32 0.44 0.39 0.34 0.23 0.22 0.24 0.23 0.33 0.30 0.32 0.29 0.30 0.26 0.22 0.24 0.18 0.19 0.27 0.34 0.33 0.37 0.34 0.21 0.14 0.08 0.10 0.20 0.19 0.22 0.26 0.25 0.17 0.14
0.56 0.58 0.60 0.61 0.64 0.65 0.66 0.60 0.62 0.64 0.66 0.59 0.47 0.39 0.43 0.35 0.35 0.30 0.28 0.23 0.21 0.21 0.30 0.31 0.25 0.25 0.22 0.17 0.18 0.19 0.21 0.23 0.28 0.32 0.32 0.28 0.15 0.17 0.16 0.16 0.18 0.16 0.17 0.20 0.19 0.19 0.14
0.54 0.57 0.59 0.61 0.64 0.63 0.64 0.62 0.61 0.62 0.62 0.54 0.45 0.45 0.49 0.41 0.41 0.38 0.32 0.27 0.24 0.24 0.25 0.22 0.22 0.26 0.26 0.20 0.20 0.17 0.21 0.21 0.18 0.28 0.27 0.30 0.16 0.19 0.13 0.16 0.17 0.14 0.15 0.17 0.18 0.20 0.19
0.55 0.57 0.61 0.64 0.64 0.64 0.63 0.65 0.62 0.63 0.62 0.52 0.61 0.62 0.51 0.47 0.42 0.37 0.34 0.34 0.33 0.33 0.31 0.30 0.28 0.26 0.22 0.23 0.28 0.29 0.30 0.30 0.28 0.24 0.23 0.23 0.20 0.17 0.11 0.16 0.16 0.10 0.11 0.13 0.16 0.18 0.17
0.67 0.68 0.68 0.69 0.70 0.69 0.68 0.67 0.66 0.64 0.65 0.63 0.66 0.61 0.47 0.39 0.46 0.42 0.41 0.38 0.36 0.37 0.32 0.35 0.36 0.30 0.31 0.39 0.35 0.30 0.27 0.26 0.27 0.28 0.31 0.24 0.23 0.22 0.15 0.17 0.07 0.11 0.18 0.19 0.16 0.17 0.20
0.77 0.78 0.79 0.78 0.76 0.76 0.75 0.74 0.72 0.69 0.69 0.68 0.73 0.64 0.54 0.44 0.45 0.43 0.44 0.40 0.39 0.39 0.36 0.36 0.38 0.42 0.46 0.37 0.27 0.21 0.19 0.21 0.24 0.29 0.29 0.32 0.27 0.21 0.17 0.15 0.14 0.13 0.16 0.16 0.15 0.12 0.17
0.87 0.84 0.83 0.84 0.83 0.80 0.79 0.79 0.79 0.78 0.77 0.72 0.73 0.78 0.65 0.52 0.47 0.52 0.46 0.50 0.44 0.42 0.41 0.38 0.45 0.52 0.48 0.39 0.29 0.20 0.17 0.18 0.18 0.22 0.33 0.33 0.33 0.25 0.21 0.16 0.11 0.13 0.20 0.25 0.23 0.12 0.18
0.93 0.90 0.88 0.87 0.89 0.90 0.90 0.91 0.92 0.91 0.89 0.84 0.78 0.82 0.70 0.58 0.60 0.58 0.51 0.51 0.53 0.50 0.41 0.44 0.50 0.46 0.50 0.35 0.28 0.26 0.23 0.26 0.19 0.21 0.28 0.32 0.33 0.29 0.28 0.24 0.25 0.28 0.27 0.31 0.18 0.16 0.22
0.94 0.94 0.94 0.98 0.96 0.97 1.00 1.01 1.02 1.00 0.98 0.93 0.85 0.88 0.76 0.65 0.65 0.65 0.65 0.59 0.59 0.57 0.47 0.50 0.47 0.47 0.43 0.35 0.33 0.32 0.30 0.30 0.29 0.32 0.33 0.31 0.30 0.31 0.33 0.30 0.26 0.39 0.42 0.34 0.34 0.35 0.34
0.91 0.96 0.99 1.01 1.07 1.08 1.07 1.07 1.06 1.06 1.03 0.99 0.84 0.93 0.90 0.74 0.69 0.76 0.76 0.75 0.70 0.66 0.58 0.54 0.48 0.46 0.46 0.39 0.38 0.38 0.34 0.35 0.33 0.28 0.40 0.31 0.35 0.31 0.33 0.31 0.39 0.42 0.40 0.43 0.43 0.44 0.45
Wind_Speed
33 35 36 39 41 41 42 39 35 34 37 39 37 33 28 22 20 19 21 20 22 20 21 22 25 36 30 27 20 22 24 28 29 29 27 26 26 25 24 23 21 19 20 17 16 14 14
34 34 36 38 40 41 41 39 35 33 36 39 40 34 30 25 21 20 22 21 25 26 26 23 28 35 29 24 18 19 23 26 28 29 27 23 24 23 22 21 20 19 18 18 16 16 15
34 34 35 37 39 40 40 38 35 33 35 37 39 36 32 27 23 23 23 25 25 26 26 26 26 28 26 19 21 18 20 23 25 28 25 22 22 20 22 20 20 19 17 17 16 17 16
35 34 35 36 38 39 40 38 35 33 34 36 37 37 35 33 26 24 24 24 25 26 28 29 24 25 26 20 17 19 19 20 22 25 24 22 20 19 19 19 17 17 17 17 18 17 17
36 34 34 35 37 38 39 38 35 34 33 34 35 35 33 32 29 24 22 21 21 25 27 28 29 28 22 16 17 15 17 18 20 22 21 20 19 18 16 17 16 16 17 18 17 18 17
36 35 33 33 35 36 37 37 34 33 32 32 33 36 37 32 28 25 23 24 27 23 21 23 23 23 21 18 15 15 16 16 18 20 20 18 17 17 15 15 18 18 15 16 17 17 18
36 35 33 32 33 35 36 36 34 32 30 30 30 32 32 35 31 24 23 22 22 24 29 29 25 25 21 18 17 14 14 14 15 16 17 16 16 16 15 14 15 15 15 15 16 16 18
35 35 34 32 31 33 34 34 34 32 30 28 27 27 29 28 30 29 28 26 24 23 25 25 25 23 21 18 17 14 12 12 13 14 16 15 15 16 14 12 12 13 13 14 15 16 18
34 35 34 32 31 31 32 33 33 32 30 27 25 24 24 24 23 21 22 22 20 18 17 18 16 15 14 15 14 12 13 13 12 11 12 15 15 14 14 11 11 11 12 14 16 17 18
32 34 34 32 31 29 30 32 32 32 31 28 26 24 22 22 19 16 13 12 12 12 11 11 10 9 8 8 10 9 8 8 9 10 11 11 12 13 12 11 11 11 12 12 14 13 16
29 31 33 32 31 29 28 29 30 31 30 29 27 25 22 21 19 17 12 10 8 7 8 5 8 6 5 7 8 5 5 6 7 8 8 9 10 11 10 10 10 10 10 11 12 12 12
27 29 31 32 31 29 27 26 27 28 29 29 28 27 25 21 20 18 15 14 13 12 11 10 9 10 10 8 6 6 7 9 7 8 8 8 8 8 8 8 8 8 8 8 9 10 11
25 26 28 30 31 30 28 25 24 24 25 26 26 26 26 23 19 18 17 15 14 15 11 10 11 12 11 10 9 9 8 7 6 8 6 5 6 6 7 6 5 5 5 7 7 8 11
24 25 25 27 28 29 28 26 23 22 21 21 23 24 24 23 20 17 16 17 21 14 13 13 12 12 13 11 12 10 9 7 7 8 8 8 4 6 6 5 5 4 5 6 8 8 12
22 23 24 25 26 28 28 27 25 21 19 18 18 21 22 23 21 19 18 18 16 14 14 13 12 12 11 11 11 11 10 8 7 6 7 6 4 4 5 3 4 5 4 6 7 9 10
20 22 22 22 24 25 27 27 26 22 19 16 15 16 19 20 20 19 18 17 16 15 14 13 12 11 11 9 10 8 7 6 6 5 5 5 4 3 4 3 3 3 3 1 1 2 4
19 20 21 21 22 23 25 26 26 24 19 15 13 13 15 16 16 17 16 16 15 14 14 13 12 12 12 11 11 10 9 8 8 7 7 7 6 4 4 4 5 3 2 1 1 2 2
18 18 19 19 19 20 22 24 25 24 21 15 12 11 13 13 12 13 13 13 13 12 12 12 11 11 11 10 10 10 9 8 9 9 8 6 6 4 4 3 3 3 3 3 1 3 4
17 17 18 18 17 18 20 22 24 24 21 15 12 10 11 10 9 9 9 9 9 9 9 9 9 9 9 8 8 7 7 7 7 7 6 4 3 3 3 2 2 4 5 5 4 4 8
17 17 17 17 16 16 18 20 22 23 20 15 12 11 11 10 8 7 6 6 6 6 6 6 6 7 7 6 5 5 4 3 2 1 1 1 1 2 3 3 3 6 7 8 7 7 8
17 17 17 16 16 16 16 17 19 21 18 15 13 10 9 9 8 6 5 3 3 3 3 3 3 2 3 3 3 2 2 3 2 2 1 2 5 5 8 12 12 13 12 11 15 15 11
18 18 17 17 16 16 16 16 17 19 16 14 12 11 10 8 8 7 6 3 2 3 2 2 2 2 2 2 2 3 3 3 4 3 3 5 7 8 10 11 10 13 16 17 19 20 21
20 19 19 18 17 17 16 16 17 17 15 13 13 11 10 9 8 7 6 5 5 4 5 5 4 4 6 7 7 8 8 9 8 7 8 8 8 9 10 10 14 14 11 13 11 13 16
23 22 21 19 18 17 17 17 17 17 15 14 13 12 10 10 8 8 8 7 7 7 8 7 7 6 8 8 11 11 12 12 12 13 11 8 8 9 11 13 8 9 10 11 12 14 16
25 23 22 21 20 19 19 18 17 17 16 15 15 13 12 11 11 10 9 9 10 10 9 10 10 10 10 11 10 10 9 8 7 8 10 10 8 10 9 10 16 11 8 7 8 14 14
26 25 24 23 22 22 21 20 20 19 19 17 16 15 14 12 12 12 11 11 10 10 11 10 9 9 9 9 8 9 9 9 8 7 8 7 9 9 10 10 11 12 11 11 12 14 10
28 27 26 26 26 25 25 24 24 23 22 21 19 18 16 15 14 13 14 13 11 10 11 12 12 10 10 10 10 10 11 10 10 9 9 8 10 15 15 15 16 18 16 13 13 15 15
32 31 31 31 31 31 30 30 28 27 25 24 22 21 18 17 18 16 15 14 14 14 13 13 12 13 11 11 10 11 11 12 12 12 12 11 10 13 12 14 17 11 13 14 18 20 21
34 35 36 36 35 35 33 31 29 27 25 24 21 20 19 19 20 21 21 20 19 18 15 15 14 13 13 12 13 13 15 15 15 15 14 15 15 15 16 16 19 19 21 23 24 24 25
Wind_Direction
19 19 17 16 15 15 16 17 20 22 22 21 20 22 26 31 34 38 42 60 82 92 115 134 150 157 161 163 161 178 186 186 186 186 187 188 192 194 196 198 201 202 205 207 208 214 218
21 20 18 18 17 17 17 19 22 23 22 22 23 27 32 37 44 54 52 74 87 94 94 122 140 154 145 140 156 164 175 178 182 183 184 188 191 194 195 200 202 204 203 208 217 221 228
22 21 19 19 19 19 19 21 24 24 25 26 28 34 37 40 54 59 66 84 87 88 84 118 125 152 142 139 146 152 159 169 176 180 181 186 187 194 193 195 200 202 208 216 225 228 232
22 21 20 20 20 21 22 23 25 27 28 30 33 37 42 46 62 64 75 85 88 89 84 90 122 135 145 144 143 140 154 158 169 175 178 181 183 185 194 196 204 208 214 218 229 233 236
22 22 21 21 22 22 23 25 27 30 31 34 36 38 42 47 58 66 79 85 95 91 83 91 94 119 134 132 136 144 151 161 171 173 177 180 184 188 194 199 208 217 217 223 235 233 238
22 22 21 22 23 24 24 26 28 30 33 35 39 43 45 48 56 70 84 85 90 95 90 88 92 104 108 113 121 133 145 152 164 176 182 187 190 192 199 203 212 215 218 226 233 240 242
22 22 22 22 23 25 25 27 28 30 33 36 39 41 44 49 54 72 81 93 97 87 81 84 92 97 104 103 105 116 140 149 158 170 179 189 184 190 197 206 211 211 218 226 237 243 251
22 22 23 23 24 25 26 27 29 30 32 35 37 39 43 48 56 73 82 87 94 99 89 83 87 89 94 99 100 95 117 145 157 167 180 181 186 196 202 204 206 214 222 236 243 246 255
22 22 23 23 24 25 26 27 29 31 32 33 36 38 41 44 56 73 82 86 91 94 92 77 81 86 90 88 93 94 106 119 136 154 171 183 191 198 198 204 208 225 228 240 245 260 259
21 22 23 23 24 25 27 29 30 31 33 35 36 37 39 43 55 63 82 85 88 89 96 51 60 70 91 102 95 94 112 122 123 138 157 170 191 193 197 205 217 225 239 245 253 260 257
19 21 22 23 23 24 25 27 30 32 34 36 38 40 43 47 56 59 67 80 93 91 83 43 53 67 77 105 131 99 108 113 132 148 156 179 178 184 192 212 219 224 238 247 251 254 264
16 18 20 22 22 23 24 25 27 31 34 37 40 42 45 51 56 59 64 78 85 81 83 73 71 70 80 85 109 126 120 118 133 122 125 148 166 177 189 204 212 224 238 252 258 259 264
12 15 17 20 21 22 22 23 24 27 31 35 38 41 46 52 58 60 66 78 79 84 93 82 83 79 84 86 96 111 115 108 123 129 138 146 163 177 186 193 216 224 244 261 272 270 253
9 11 14 16 19 20 21 21 21 23 27 31 36 40 44 49 55 62 69 74 78 87 89 91 85 78 80 79 84 98 117 110 106 122 133 143 157 174 185 202 215 234 229 233 252 269 275
4 7 9 13 16 18 20 20 20 20 23 27 32 40 44 46 53 62 70 71 87 90 90 88 81 79 74 81 93 95 97 111 113 118 133 139 154 165 188 217 223 236 260 255 273 272 279
358 2 5 8 11 15 17 19 19 18 20 26 34 40 40 42 51 61 70 73 74 81 83 80 83 84 79 77 82 88 95 103 112 115 124 147 139 190 203 220 246 219 186 186 288 292 290
350 356 359 2 6 11 14 16 17 17 18 24 30 39 35 39 50 58 66 69 74 75 74 77 78 80 84 84 81 85 91 91 100 102 103 114 111 139 141 172 168 155 183 174 194 237 237
340 347 352 356 1 5 9 12 14 15 16 21 28 33 26 36 48 54 60 64 67 70 71 72 72 74 79 79 80 88 92 92 104 101 99 99 104 121 157 127 160 186 196 190 219 259 266
328 335 343 347 353 358 3 7 10 12 15 20 25 24 23 32 47 49 53 58 61 66 66 67 67 70 71 73 71 78 79 80 103 100 97 100 79 66 16 356 267 242 243 248 272 289 262
317 324 330 336 341 348 354 359 5 8 12 17 20 18 15 28 34 52 52 47 48 56 57 62 63 68 65 65 74 62 64 65 104 104 90 40 301 243 244 275 284 268 265 254 250 266 278
306 313 319 325 330 335 342 349 356 1 5 9 11 9 11 4 8 17 24 33 36 34 38 43 39 56 60 40 33 33 21 15 2 312 326 316 296 288 285 282 279 272 268 260 249 254 264
297 303 309 314 318 323 329 336 343 350 353 1 1 357 356 357 355 351 344 323 330 341 346 331 310 340 306 304 280 307 312 307 299 306 283 298 300 310 293 293 287 280 270 262 260 261 270
290 295 299 304 308 311 316 324 332 339 342 346 348 344 346 336 340 346 330 326 311 311 306 299 288 299 291 285 285 285 282 286 289 280 275 284 294 312 293 306 302 292 281 253 269 269 262
284 289 293 296 299 302 305 311 319 327 332 332 333 334 329 322 321 312 313 311 307 302 298 295 285 285 293 300 298 290 284 279 275 271 271 279 289 296 296 313 306 281 291 285 264 277 264
278 281 285 289 292 296 298 302 306 312 317 320 320 320 315 307 304 302 297 294 302 302 295 292 286 282 289 300 302 305 298 291 289 279 266 264 275 293 295 297 298 304 318 297 278 294 277
274 277 280 283 287 290 292 293 295 299 303 304 308 310 308 299 290 296 291 291 289 290 298 291 294 294 296 295 294 291 289 293 283 292 305 278 272 278 292 295 288 292 300 298 299 297 286
271 273 276 279 283 285 287 287 288 290 293 292 292 295 297 294 285 283 282 281 278 284 283 289 291 291 289 287 286 283 286 283 284 275 278 284 279 265 275 289 289 284 277 296 297 287 288
269 271 274 277 279 280 283 282 282 283 285 287 286 284 285 282 284 276 276 273 275 276 278 281 289 284 285 281 277 280 280 280 286 282 280 273 276 278 275 283 292 281 295 280 287 291 289
270 272 273 276 278 279 279 279 279 278 279 283 281 282 280 278 277 279 276 272 270 268 269 273 274 279 274 279 279 283 283 283 281 285 280 280 271 280 269 282 292 288 288 290 293 290 290